This demonstration page uses our WeatherBlox Daily Observations layout. Learn more.

41.55636, -103.73856

Hourly Observations for October 24, 2016

Temp ( °F °C ) Dew Point ( °F °C ) Humidity (%) Winds ( mph kmh ) Pressure ( in mb ) Visibility ( mi km ) Precip ( " mm )
12:53 am 00:53 Clear 45 7.2 27 -2.8 49 49 ESE 10 17 30.19 1022 10 16.0934 0 0
1:53 am 01:53 Clear 44 6.7 27 -2.8 51 51 E 8 13 30.18 1022 10 16.0934 0 0
2:53 am 02:53 Clear 43 6.1 27 -2.8 53 53 ESE 10 17 30.17 1022 10 16.0934 0 0
3:53 am 03:53 Clear 42 5.6 27 -2.8 55 55 ESE 10 17 30.16 1021 10 16.0934 0 0
4:53 am 04:53 Clear 38 3.3 27 -2.8 65 65 ESE 10 17 30.18 1022 10 16.0934 0 0
5:53 am 05:53 Clear 38 3.3 27 -2.8 65 65 ESE 10 17 30.19 1023 10 16.0934 0 0
6:53 am 06:53 Clear 37 2.8 27 -2.8 67 67 ESE 12 19 30.2 1023 10 16.0934 0 0
7:53 am 07:53 Sunny 38 3.3 27 -2.8 65 65 ESE 10 17 30.22 1023 10 16.0934 0 0
8:53 am 08:53 Sunny 43 6.1 29 -1.7 58 58 ESE 8 13 30.22 1023 10 16.0934 0 0
9:53 am 09:53 Sunny 50 10 31 -0.6 48 48 SE 8 13 30.19 1023 10 16.0934 0 0
10:53 am 10:53 Sunny 56 13.3 32 0 40 40 E 8 13 30.18 1022 10 16.0934 0 0
11:53 am 11:53 Sunny 60 15.6 33 0.6 36 36 SE 6 9 30.16 1021 10 16.0934 0 0
12:53 pm 12:53 Sunny 65 18.3 34 1.1 32 32 undefined N/A 30.11 1020 10 16.0934 0 0
1:53 pm 13:53 Sunny 72 22.2 34 1.1 25 25 E 8 13 30.06 1018 10 16.0934 0 0
2:53 pm 14:53 Sunny 75 23.9 34 1.1 22 22 E 13 20 30.03 1017 10 16.0934 0 0
3:53 pm 15:53 Sunny 73 22.8 33 0.6 23 23 E 10 17 30.03 1017 10 16.0934 0 0
4:53 pm 16:53 Sunny 70 21.1 34 1.1 27 27 ESE 14 22 30.02 1017 10 16.0934 0 0
5:53 pm 17:53 Sunny 64 17.8 35 1.7 34 34 ESE 10 17 30.04 1017 10 16.0934 0 0
6:53 pm 18:53 Clear 58 14.4 35 1.7 42 42 ESE 9 15 30.06 1018 10 16.0934 0 0
7:53 pm 19:53 Clear 58 14.4 38 3.3 48 48 ESE 9 15 30.06 1018 10 16.0934 0 0
8:53 pm 20:53 Clear 55 12.8 39 3.9 55 55 ESE 10 17 30.06 1018 10 16.0934 0 0
9:53 pm 21:53 Clear 54 12.2 40 4.4 59 59 E 12 19 30.04 1017 10 16.0934 0 0
10:53 pm 22:53 Clear 52 11.1 41 5 66 66 E 10 17 30.02 1017 10 16.0934 0 0
11:53 pm 23:53 Clear 51 10.6 42 5.6 71 71 ESE 9 15 29.99 1016 10 16.0934 0 0

Powered by AerisWeather